www.pogodaiklimat.ru

АРХИВ ПОГОДЫ в Лас-Вегасе

Время (UTC), дата Ветер
(напр.,м/с)
 
Видим.   Явления Облачность Т
(С)
Тd
(С)
f
(%)
Тe
(С)
Тes
(С)
Комфортность

P
(гПа)

Po
(гПа)
Тmin
(С)
Tmax
(С)
R
(мм)
SD
(см)
13:56 14.07 Ю  16 км    2/0 4200 м
[средняя] 
+34.4  +3.3  14  +31  +33  жарко  1010.8  936.7         
14:56 14.07 Ю  16 км    2/0 4200 м
[средняя] 
+36.7  +2.2  12  +33  +36  жарко  1010.8  936.7         
15:56 14.07 нст  16 км    2/0 4200 м
[средняя] 
+38.3  0.0  +35  +40  очень
жарко 
1010.8  936.7         
16:56 14.07 Ю  16 км    2/0 4200 м
[средняя] 
+40.6  -3.3  +36  +43  очень
жарко 
1010.5  936.7  +31.1  +40.6     
17:56 14.07 Ю  4
{9} 
16 км    2/0 4200 м
[средняя] 
+41.7  -2.2  +38  +46  очень
жарко 
1010.0  936.1         
18:56 14.07 Ю  4
{9} 
16 км    2/0 4200 м
[средняя верхняя] 
+41.7  -3.3  +38  +46  очень
жарко 
1009.6  935.8         
19:56 14.07 ЮЗ  7
{11} 
16 км    2/0 4200 м
[средняя верхняя] 
+42.8  -2.8  +39  +42  очень
жарко 
1008.8  935.2         
20:56 14.07 ЮЗ  16 км    2/0 4200 м
[средняя верхняя] 
+42.8  -2.8  +39  +43  очень
жарко 
1008.3  934.5         
21:56 14.07 ЮЗ  7
{10} 
16 км    2/0 4200 м
[средняя верхняя] 
+42.2  -2.8  +38  +41  очень
жарко 
1007.9  933.9         
22:56 14.07 ЮЗ  4
{9} 
16 км    2/0 4200 м
[средняя] 
+42.2  -2.2  +38  +44  очень
жарко 
1007.3  933.6  +40.0  +43.3     
23:56 14.07 ЮЗ  16 км    2/0 4200 м
[средняя] 
+42.2  -3.3  +38  +41  очень
жарко 
1006.9  933.3         
00:56 15.07 ЮЗ  16 км    2/0 4200 м
[средняя] 
+41.1  -3.9  +37  +38  очень
жарко 
1007.0  933.3         
01:56 15.07 ЮЗ  16 км    2/0 4200 м
[средняя] 
+40.0  -3.9  +36  +36  очень
жарко 
1007.0  933.3         
02:56 15.07 ЮЗ  16 км    ясно  +38.9  -4.4  +35  +35  очень
жарко 
1007.5  933.9         
03:56 15.07 ЮЗ  16 км    ясно  +36.7  -6.1  +32  +32  жарко  1007.9  934.2         
04:56 15.07 ЮЗ  16 км    ясно  +35.0  -5.6  +31  +31  жарко  1007.8  934.2  +35.0  +42.2     
05:56 15.07 З  16 км    ясно  +36.1  -2.8  +32  +32  жарко  1008.1  934.5         
06:56 15.07 ЮЗ  16 км    ясно  +35.6  -1.1  10  +32  +32  жарко  1008.4  934.5         
07:56 15.07 ЮЗ  16 км    ясно  +33.9  -1.7  10  +30  +30  жарко  1008.6  934.9         
08:56 15.07 ЮЗ  16 км    ясно  +33.9  -1.1  11  +30  +30  жарко  1008.5  934.5         
09:56 15.07 Ю  16 км    ясно  +31.7  -0.6  13  +29  +29  жарко  1008.6  934.9         
10:56 15.07 Ю  16 км    ясно  +31.7  -0.6  13  +29  +29  жарко  1008.3  934.5  +31.1  +36.1     
11:56 15.07 Ю  16 км    ясно  +30.6  +1.1  15  +28  +28  жарко  1009.1  935.2         
12:56 15.07 Ю  16 км    ясно  +31.7  +2.2  15  +29  +29  жарко  1009.4  935.5         
13:56 15.07 Ю  16 км    ясно  +33.9  +3.3  15  +31  +32  жарко  1009.8  935.8         
14:56 15.07 нст  16 км    2/0 7500 м
[верхняя] 
+36.1  +1.7  12  +33  +37  жарко  1009.7  935.8         
15:56 15.07 Ю  16 км    2/0 7500 м
[верхняя] 
+37.8  -0.6  +34  +41  очень
жарко 
1009.7  935.8         
16:56 15.07 нст  16 км    ясно  +38.9  -2.2  +35  +45  очень
жарко 
1009.3  935.5  +30.6  +39.4     
17:13 15.07 Ю  6
{9} 
16 км    ясно  +40.0  -2.8  +36  +42  очень
жарко 
  935.2         
17:56 15.07 Ю  4
{10} 
16 км    2/0 3600 м
[средняя] 
+40.6  -5.0  +36  +45  очень
жарко 
1008.5  934.9         
18:56 15.07 Ю  6
{10} 
16 км    2/0 3600 м
[средняя] 
+41.7  -5.6  +37  +42  очень
жарко 
1007.9  934.2         
19:56 15.07 нст  3
{10} 
16 км    2/0 3600 м
[средняя] 
+41.1  -5.6  +37  +50  очень
жарко 
1007.4  933.6         
20:13 15.07 ЮЗ  6
{9} 
16 км    2/0 3600 м
[средняя] 
+41.7  -6.7  +37  +42  очень
жарко 
  933.6         
20:56 15.07 ЮЗ  4
{10} 
16 км    2/0 3600 м
[средняя] 
+41.7  -5.6  +37  +48  очень
жарко 
1006.4  933.0         
21:56 15.07 ЮЗ  8
{11} 
16 км    2/0 3600 м
[средняя] 
+42.8  -5.0  +39  +40  очень
жарко 
1005.6  932.0         
22:56 15.07 ЮЗ  6
{10} 
16 км    2/0 3600 м
[средняя] 
+41.7  -8.3  +37  +40  очень
жарко 
1005.1  931.7  +38.9  +42.8     
23:56 15.07 ЮЗ  6
{10} 
16 км    2/0 3600 м
[средняя] 
+41.1  -7.8  +37  +38  очень
жарко 
1004.8  931.1         
00:56 16.07 ЮЗ  16 км    ясно  +40.0  -6.7  +36  +36  очень
жарко 
1004.4  930.8         
01:56 16.07 ЮЗ  16 км    ясно  +38.9  -7.8  +34  +35  очень
жарко 
1004.5  930.8         
02:56 16.07 ЮЗ  16 км    ясно  +37.2  -8.9  +33  +33  жарко  1004.7  931.1         
03:56 16.07 Ю  16 км    ясно  +36.1  -8.3  +32  +32  жарко  1005.1  931.4         
04:56 16.07 Ю  16 км    ясно  +35.0  -7.2  +31  +31  жарко  1005.3  931.7  +35.0  +42.2     
05:56 16.07 Ю  16 км    ясно  +34.4  -6.7  +30  +30  жарко  1005.2  931.7         
06:56 16.07 ЮЗ  16 км    ясно  +33.3  -6.1  +29  +29  жарко  1005.2  931.7         
07:56 16.07 Ю  16 км    ясно  +32.8  -5.6  +29  +29  жарко  1005.1  931.7         
08:56 16.07 Ю  16 км    ясно  +31.7  -6.7  +28  +28  жарко  1004.9  931.4         
09:56 16.07 Ю  16 км    ясно  +30.6  -6.7  +27  +27  жарко  1004.6  931.1         
10:56 16.07 Ю  16 км    ясно  +30.0  -6.1  +26  +26  жарко  1005.3  931.7  +30.0  +35.0     

 

Местоположение метеостанции McCarran International Airport: широта 36.0719 долгота -115.1634 высота над уровнем моря 664 м.

В архиве по умолчанию представлена погода в Лас-Вегасе за последние 1-2 суток. Обновление информации о фактической погоде в базе происходит ежечасно! Архивные данные за месяц целиком и за предыдущие месяцы Вы можете получить, выбрав интересующий диапазон дат из раскрывающегося списка и нажав кнопку "Ввод!".

Внимание! Архив погоды МЕТАР в базе сайта в настоящее время начинается c 1 января 2011 г. Нет смысла пытаться выбрать более раннюю дату.

Внимание! Время в таблицах - всемирное. Для получения местного времени необходимо прибавить поправку, которая в Лас-Вегасе равна -8 ч.

Ветер - указаны скорость ветра в м/с и направление, откуда дует ветер: С - северный, СВ - северо-восточный, В - восточный, ЮВ - юго-восточный, Ю - южный, ЮЗ - юго-западный, З - западный, СЗ - северо-западный.
Видимость - горизонтальная дальность видимости в метрах или километрах. При видимости от 1 до 10 км при отсутствии осадков обычно наблюдается дымка, при ухудшении видимости до 1 км и менее - туман. В сухую погоду видимость может ухудшаться дымом, пылью или мглою.
Атмосферные явления - указаны явления, наблюдавшиеся в указанный момент времени.
Облачность - указаны через наклонную черту верхняя и нижняя облачность в баллах и высота нижней границы облаков в метрах. Внимание: облачность, как и прочие метеорологические величины в США измеряются автоматическими метеостанциями. Указанные значения в баллах носят условный характер и показывают процент времени, в течение которого, в среднем, лазерный луч высотомера отражался от облаков обратно.
T - Температура воздуха - температура, измеренная на высоте 2 м над землей.
Td - Температура точки росы - температура, при понижении до которой содержащийся в воздухе водяной пар достигнет насыщения.
f - Относительная влажность воздуха - влажноcть воздуха, измеренная на высоте 2 м над землей.
Te - Эффективная температура - температура, которую ощущает одетый по сезону человек в тени. Характеристика душности погоды. При расчете учитывается влияние влажности воздуха и скорости ветра на теплоощущения человека.
Tes - Эффективная температура на солнце - температура, которую ощущает человек, с поправкой на солнечный нагрев. Характеристика знойности погоды. Зависит от высоты солнца над горизонтом, облачности и скорости ветра. Ночью, в пасмурную погоду, а также при ветре 12 м/с и более поправка равна нулю.
P - Атмосферное давление - приведенное к уровню моря атмосферное давление.
Po - Атмосферное давление - измеренное на уровне метеостанции атмосферное давление.
Tmin - Минимальная температура - минимум температуры воздуха на высоте 2 м над землей.
Tmax - Максимальная температура - максимум температуры воздуха на высоте 2 м над землей.
R - Количество осадков - Количество выпавших осадков за 3 или 6 часов, мм.
SD - Снежный покров - Высота снежного покрова, см.